AirNav  
 
 470 users online  

5FD4 Flagler County Emergency Operations Center Heliport
Bunnell, Florida, USA

GOING TO BUNNELL?


FAA INFORMATION EFFECTIVE 29 MARCH 2018

Location

FAA Identifier: 5FD4
Lat/Long: 29-28-16.1000N / 081-14-39.5000W
29-28.268333N / 081-14.658333W
29.4711389 / -81.2443056
(estimated)
Elevation: 31 ft. / 9 m (estimated)
From city: 1 mile W of BUNNELL, FL
Time zone: UTC -4 (UTC -5 during Standard Time)
Zip code: 32110

Heliport Operations

Heliport use: Private use. Permission required prior to landing
Activation date: 06/2007
Control tower: no
ARTCC: JACKSONVILLE CENTER
FSS: GAINESVILLE FLIGHT SERVICE STATION
Attendance: UNATNDD
Wind indicator: yes
Segmented circle: no

Heliport Communications

WX AWOS-3 at FIN (1.9 nm E): 128.325 (386-437-7334)
WX AWOS-3 at OMN (12 nm SE): 118.475 (386-615-7084)

Nearby radio navigation aids

VOR radial/distance  VOR name  Freq  Var
OMNr326/12.2ORMOND BEACH VORTAC112.6000E
SGJr177/29.5ST AUGUSTINE VOR/DME109.4006W

 
NDB name  Hdg/Dist  Freq  Var  ID
REYNOLDS151/36.733807WRYD .-. -.-- -..

Heliport Services

Runway Information

Helipad H1

Dimensions: 55 x 55 ft. / 17 x 17 m
Surface: concrete
Latitude: 29-28.269333N
Longitude: 081-14.662167W
Elevation: 31.0 ft.
Traffic pattern: leftleft

Heliport Ownership and Management from official FAA records

Ownership: Privately-owned
Owner: FLAGLER COUNTY
1796 E. MOODY BLVD.
BUNNELL, FL 32110
Phone 386-437-0401
Manager: RAY SIEGER
201 AIRPORT RD.
PALM COAST, FL 32164
Phone (386) 313-4220

Additional Remarks

250 FT TWR 1770 FT ESE OF PAD,

Instrument Procedures

There are no published instrument procedures at 5FD4.

Some nearby airports with instrument procedures:

KFIN - Flagler Executive Airport (2 nm E)
KOMN - Ormond Beach Municipal Airport (12 nm SE)
KDAB - Daytona Beach International Airport (20 nm SE)
KDED - DeLand Municipal Airport-Sidney H Taylor Field (24 nm S)
28J - Palatka Municipal Airport - Lt. Kay Larkin Field (26 nm NW)
 
Loc | Ops | Rwys | IFR | FBO | Links
Com | Nav | Svcs | Stats | Notes

AirNav Hotels Sweepstakes
 
Area around 5FD4 (Flagler County Emergency Operations Center Heliport)
 
Road maps at: MapQuest Bing Google
 
Aerial photo
No photo
 
Sectional chart

 
Airport distance calculator
Flying to Flagler County Emergency Operations Center Heliport? Find the distance to fly.

From to 5FD4

Sunrise and sunset
Times for 25-Apr-2018
 Local
(UTC-4)
 Zulu
(UTC)
Morning civil twilight06:2510:25
Sunrise06:4910:49
Sunset19:5723:57
Evening civil twilight20:2100:21

Current date and time
Zulu (UTC)  25-Apr-2018 09:26:50
Local (UTC-4)  25-Apr-2018 05:26:50
 
METAR
KFIN 
2nm E 
250915Z AUTO 27006KT 10SM CLR 16/15 A2991 RMK AO2 T01640150
KOMN 
12nm SE 
242250Z 28013G16KT 10SM SCT055 25/14 A2988 RMK LAST
KDAB 
20nm SE 
250853Z 25006KT 10SM CLR 16/16 A2991 RMK AO2 SLP128 T01560156 55008
TAF
KDAB 
20nm SE 
250541Z 2506/2606 26008KT P6SM SKC FM251600 26010G17KT P6SM FEW040
NOTAMs
Click for the latest NOTAMs
NOTAMs are issued by the DoD/FAA and will open in a separate window not controlled by AirNav.

 

 
 

Would you like to see your business listed on this page?

 If your business provides an interesting product or service to pilots, flight crews, aircraft, or users of the Flagler County Emergency Operations Center Heliport, you should consider listing it here.  To start the listing process, click on the button below
 
Add a business
 

Other Pages about Flagler County Emergency Operations Center Heliport

Update a link
 
Copyright © AirNav, LLC. All rights reserved. Privacy Policy  Contact